Back to catalog

NAVSTAR 70

USA 251

AliveNavigationHEO
NORAD 39741·PAYLOAD·🇺🇸 United States

Launched May 17, 2014 from Cape Canaveral Space Force Station

Loading…

Next Passes (next 24 hours)

TLE

FreshSource: CelesTrak SupGP

Epoch: Sep 16, 2026, 16:44 UTC

1 39741C 14026A   26259.69756944  .00000000  00000+0  00000+0 0  2598
2 39741  56.4473 327.9521 0039449 324.1902  31.0623  2.00554770    10

Track NAVSTAR 70 in real time with AllMySat

Download on the App Store